| time (UTC) | temp F | wind direction | speed knots | gust knots | rain 1hr in | rain 24hr in | rain mn in | humidity % | barometer mb |
| 20260502130313 | 71 | 157 | 0.9 | 4.3 | 0.00 | 0.00 | 0.00 | 34 | 1020.0 |
| 20260502123312 | 70 | 180 | 0.9 | 4.3 | 0.00 | 0.00 | 0.00 | 31 | 1020.2 |
| 20260502122312 | 70 | 180 | 0.0 | 8.7 | 0.00 | 0.00 | 0.00 | 31 | 1020.1 |
| 20260502121312 | 69 | 157 | 1.7 | 9.6 | 0.00 | 0.00 | 0.00 | 32 | 1020.2 |
| 20260502115312 | 70 | 360 | 0.9 | 5.2 | 0.00 | 0.00 | 0.00 | 33 | 1020.8 |
| 20260502114311 | 70 | 202 | 4.3 | 9.6 | 0.00 | 0.00 | 0.00 | 31 | 1020.9 |
| 20260502112311 | 69 | 180 | 2.6 | 7.0 | 0.00 | 0.00 | 0.00 | 27 | 1021.0 |
| 20260502111311 | 67 | 202 | 0.9 | 7.0 | 0.00 | 0.00 | 0.00 | 28 | 1021.2 |
| 20260502105311 | 69 | 180 | 3.5 | 7.0 | 0.00 | 0.00 | 0.00 | 29 | 1021.3 |
| 20260502104311 | 68 | 202 | 0.9 | 9.6 | 0.00 | 0.00 | 0.00 | 28 | 1021.3 |
| 20260502103311 | 67 | 202 | 2.6 | 13.0 | 0.00 | 0.00 | 0.00 | 28 | 1021.3 |
| 20260502102310 | 67 | 180 | 7.0 | 8.7 | 0.00 | 0.00 | 0.00 | 32 | 1021.4 |
| 20260502091310 | 65 | 202 | 3.5 | 8.7 | 0.00 | 0.00 | 0.00 | 33 | 1021.8 |
| 20260502071313 | 61 | 0 | 0.0 | 2.6 | 0.00 | 0.00 | 0.00 | 38 | 1022.6 |
| 20260502070313 | 60 | 135 | 0.9 | 3.5 | 0.00 | 0.00 | 0.00 | 41 | 1022.4 |
| 20260502065313 | 60 | 90 | 2.6 | 5.2 | 0.00 | 0.00 | 0.00 | 41 | 1022.4 |
| 20260502061312 | 56 | 90 | 2.6 | 5.2 | 0.00 | 0.00 | 0.00 | 54 | 1022.7 |
| 20260502060312 | 53 | 45 | 1.7 | 4.3 | 0.00 | 0.00 | 0.00 | 63 | 1022.6 |
| 20260502055312 | 51 | 45 | 3.5 | 4.3 | 0.00 | 0.00 | 0.00 | 66 | 1022.6 |
| 20260502053312 | 49 | 45 | 4.3 | 5.2 | 0.00 | 0.00 | 0.00 | 66 | 1022.8 |
| 20260502052312 | 47 | 45 | 4.3 | 4.3 | 0.00 | 0.00 | 0.00 | 69 | 1022.6 |
| 20260502051311 | 46 | 45 | 3.5 | 6.1 | 0.00 | 0.00 | 0.00 | 69 | 1022.6 |
| 20260502050311 | 46 | 45 | 5.2 | 6.1 | 0.00 | 0.00 | 0.00 | 69 | 1022.6 |
| 20260502045311 | 46 | 45 | 3.5 | 7.0 | 0.00 | 0.00 | 0.00 | 69 | 1022.5 |
| 20260502044311 | 46 | 45 | 4.3 | 6.1 | 0.00 | 0.00 | 0.00 | 69 | 1022.4 |
| 20260502040310 | 44 | 45 | 5.2 | 7.0 | 0.00 | 0.00 | 0.00 | 71 | 1022.3 |
| 20260502034310 | 44 | 45 | 5.2 | 7.0 | 0.00 | 0.00 | 0.00 | 71 | 1022.6 |
| 20260502033310 | 44 | 45 | 5.2 | 7.0 | 0.00 | 0.00 | 0.00 | 70 | 1022.4 |
| 20260502032310 | 45 | 45 | 4.3 | 6.1 | 0.00 | 0.00 | 0.00 | 69 | 1022.6 |
| 20260502031310 | 45 | 45 | 5.2 | 6.1 | 0.00 | 0.00 | 0.00 | 68 | 1022.8 |
| 20260502030309 | 46 | 45 | 5.2 | 7.0 | 0.00 | 0.00 | 0.00 | 66 | 1023.0 |
| 20260502025309 | 46 | 45 | 6.1 | 7.0 | 0.00 | 0.00 | 0.00 | 66 | 1023.2 |
| 20260502024309 | 46 | 45 | 5.2 | 7.0 | 0.00 | 0.00 | 0.00 | 66 | 1023.0 |
| 20260502023309 | 45 | 45 | 5.2 | 7.0 | 0.00 | 0.00 | 0.00 | 67 | 1023.3 |
| 20260502022309 | 45 | 45 | 5.2 | 7.0 | 0.00 | 0.00 | 0.00 | 67 | 1023.1 |
| 20260502020314 | 46 | 45 | 5.2 | 7.0 | 0.00 | 0.00 | 0.00 | 65 | 1023.4 |
| 20260502015314 | 46 | 45 | 5.2 | 7.8 | 0.00 | 0.00 | 0.00 | 64 | 1023.4 |
| 20260502014313 | 46 | 45 | 6.1 | 8.7 | 0.00 | 0.00 | 0.00 | 63 | 1023.2 |
| 20260502013313 | 46 | 45 | 5.2 | 7.0 | 0.00 | 0.00 | 0.00 | 64 | 1023.2 |
| 20260502012313 | 46 | 45 | 5.2 | 7.0 | 0.00 | 0.00 | 0.00 | 64 | 1023.6 |
| 20260502011313 | 46 | 45 | 5.2 | 7.8 | 0.00 | 0.00 | 0.00 | 65 | 1023.7 |
| 20260502005313 | 45 | 45 | 5.2 | 7.0 | 0.00 | 0.00 | 0.00 | 67 | 1023.9 |
| 20260502004313 | 44 | 45 | 5.2 | 7.0 | 0.00 | 0.00 | 0.00 | 70 | 1023.6 |
| 20260502003313 | 43 | 45 | 4.3 | 5.2 | 0.00 | 0.00 | 0.00 | 72 | 1023.6 |
| 20260502002313 | 43 | 45 | 3.5 | 4.3 | 0.00 | 0.00 | 0.00 | 72 | 1023.6 |
| 20260502001312 | 44 | 45 | 3.5 | 5.2 | 0.00 | 0.00 | 0.00 | 70 | 1023.6 |
| 20260502000312 | 46 | 45 | 2.6 | 5.2 | 0.00 | 0.00 | 0.00 | 68 | 1023.9 |
| 20260501234312 | 45 | 45 | 2.6 | 5.2 | 0.00 | 0.00 | 0.00 | 68 | 1024.2 |
| 20260501233312 | 46 | 22 | 2.6 | 3.5 | 0.00 | 0.00 | 0.00 | 66 | 1024.2 |
| 20260501231312 | 47 | 45 | 2.6 | 6.1 | 0.00 | 0.00 | 0.00 | 64 | 1024.2 |
| 20260501230311 | 46 | 45 | 2.6 | 4.3 | 0.00 | 0.00 | 0.00 | 65 | 1024.1 |
| 20260501225311 | 45 | 45 | 2.6 | 3.5 | 0.00 | 0.00 | 0.00 | 69 | 1024.1 |
| 20260501224311 | 44 | 22 | 2.6 | 5.2 | 0.00 | 0.00 | 0.00 | 71 | 1023.9 |
| 20260501223311 | 43 | 45 | 4.3 | 5.2 | 0.00 | 0.00 | 0.00 | 75 | 1023.7 |
| 20260501222311 | 43 | 45 | 4.3 | 6.1 | 0.00 | 0.00 | 0.00 | 74 | 1023.7 |
| 20260501221311 | 44 | 45 | 5.2 | 6.1 | 0.00 | 0.00 | 0.00 | 71 | 1023.9 |
| 20260501220311 | 45 | 45 | 5.2 | 6.1 | 0.00 | 0.00 | 0.00 | 70 | 1023.9 |
| 20260501215311 | 45 | 45 | 4.3 | 6.1 | 0.00 | 0.00 | 0.00 | 69 | 1023.9 |
| 20260501214310 | 45 | 45 | 4.3 | 6.1 | 0.00 | 0.00 | 0.00 | 69 | 1023.7 |
| 20260501212310 | 45 | 45 | 5.2 | 6.1 | 0.00 | 0.00 | 0.00 | 70 | 1023.7 |
| 20260501211310 | 45 | 45 | 5.2 | 6.1 | 0.00 | 0.00 | 0.00 | 69 | 1023.6 |
| 20260501210310 | 46 | 45 | 6.1 | 7.0 | 0.00 | 0.00 | 0.00 | 68 | 1023.9 |
| 20260501205310 | 46 | 45 | 5.2 | 6.1 | 0.00 | 0.00 | 0.00 | 69 | 1023.9 |
| 20260501204310 | 46 | 45 | 5.2 | 6.1 | 0.00 | 0.00 | 0.00 | 68 | 1024.1 |
| 20260501203309 | 47 | 45 | 5.2 | 7.0 | 0.00 | 0.00 | 0.00 | 67 | 1024.1 |
| 20260501202309 | 47 | 45 | 4.3 | 6.1 | 0.00 | 0.00 | 0.00 | 66 | 1024.1 |
| 20260501201312 | 47 | 45 | 5.2 | 7.0 | 0.00 | 0.00 | 0.00 | 67 | 1024.1 |
| 20260501200309 | 47 | 45 | 5.2 | 6.1 | 0.00 | 0.00 | 0.00 | 65 | 1023.8 |
| 20260501195314 | 47 | 45 | 4.3 | 6.1 | 0.00 | 0.00 | 0.00 | 65 | 1023.8 |
| 20260501193314 | 48 | 22 | 4.3 | 6.1 | 0.00 | 0.00 | 0.00 | 63 | 1023.8 |
| 20260501191313 | 49 | 22 | 4.3 | 6.1 | 0.00 | 0.00 | 0.00 | 62 | 1024.0 |
| 20260501190313 | 48 | 22 | 4.3 | 6.1 | 0.00 | 0.00 | 0.00 | 64 | 1023.5 |
| 20260501185313 | 48 | 45 | 5.2 | 5.2 | 0.00 | 0.00 | 0.00 | 65 | 1023.5 |
| 20260501184313 | 49 | 45 | 3.5 | 5.2 | 0.00 | 0.00 | 0.00 | 62 | 1023.4 |
| 20260501183313 | 51 | 45 | 3.5 | 5.2 | 0.00 | 0.00 | 0.00 | 60 | 1023.5 |
| 20260501181313 | 52 | 45 | 1.7 | 2.6 | 0.00 | 0.00 | 0.00 | 58 | 1023.4 |
| 20260501175312 | 55 | 22 | 0.9 | 1.7 | 0.00 | 0.00 | 0.00 | 50 | 1023.4 |
| 20260501174312 | 57 | 45 | 1.7 | 4.3 | 0.00 | 0.00 | 0.00 | 45 | 1023.3 |
| 20260501172312 | 58 | 45 | 2.6 | 5.2 | 0.00 | 0.00 | 0.00 | 42 | 1022.9 |
| 20260501171312 | 59 | 22 | 5.2 | 7.0 | 0.00 | 0.00 | 0.00 | 41 | 1022.9 |
| 20260501170312 | 59 | 22 | 0.0 | 3.5 | 0.00 | 0.00 | 0.00 | 41 | 1022.9 |
| 20260501165312 | 60 | 360 | 5.2 | 7.8 | 0.00 | 0.00 | 0.00 | 40 | 1023.1 |
| 20260501164311 | 60 | 0 | 0.0 | 2.6 | 0.00 | 0.00 | 0.00 | 38 | 1023.3 |
| 20260501163311 | 60 | 45 | 0.0 | 7.0 | 0.00 | 0.00 | 0.00 | 40 | 1023.3 |
| 20260501162311 | 61 | 67 | 1.7 | 5.2 | 0.00 | 0.00 | 0.00 | 40 | 1023.3 |
| 20260501161311 | 61 | 112 | 0.0 | 1.7 | 0.00 | 0.00 | 0.00 | 39 | 1023.3 |
| 20260501160311 | 62 | 67 | 1.7 | 10.4 | 0.00 | 0.00 | 0.00 | 38 | 1023.3 |
| 20260501155311 | 62 | 22 | 0.0 | 9.6 | 0.00 | 0.00 | 0.00 | 38 | 1023.5 |
| 20260501154310 | 62 | 360 | 0.9 | 8.7 | 0.00 | 0.00 | 0.00 | 39 | 1023.5 |
| 20260501152310 | 62 | 292 | 1.7 | 3.5 | 0.00 | 0.00 | 0.00 | 40 | 1023.9 |
| 20260501150309 | 61 | 45 | 0.9 | 5.2 | 0.00 | 0.00 | 0.00 | 42 | 1024.1 |